Location: Decatur Area Astronomy Club
(40.0275°N, 88.7810°W)
Time: 02:51:28
(UTC-05:00)

Amateur Radio Satellites - All Passes

Search period start: 24 April 2014 02:21
Search period end: 25 April 2014 02:21
Location: Decatur Area Astronomy Club, 40.0275°N, 88.7810°W

Satellite Date Start Highest point End Downlink Frequencies (MHz)
Time Altitude Azimuth
UOSAT-12 24 Apr 02:24:46 02:29:02 34° 246° (WSW) 02:33:14 437.025 FM, 437.400 FM
KITSAT 1 24 Apr 02:25:45 02:33:53 90° 299° (WNW) 02:42:04 435.175 FM
AO-27 24 Apr 02:34:40 02:39:30 39° 98° (E) 02:44:19 436.795 MHz FM
OPAL 24 Apr 02:37:26 02:42:27 71° 72° (ENE) 02:47:34 ?
Oscar 19 24 Apr 02:37:27 02:42:41 80° 103° (ESE) 02:47:53 437.125 CW, 437.150 USB
ITAMSAT 1 24 Apr 02:43:57 02:48:56 47° 100° (E) 02:53:54 435.822 SSB
Oscar 16 24 Apr 02:46:39 02:51:52 79° 285° (WNW) 02:57:04 437.025 USB, Beacon 2401.1428
Gurwin Techsat 1B 24 Apr 02:55:42 02:59:29 20° 93° (E) 03:03:14 435.225 FM
JAS-1B 24 Apr 03:22:33 03:24:49 12° 91° (E) 03:27:08 435.800 - 435.900 CW/SSB
Uribyol 2 24 Apr 03:31:03 03:36:09 59° 287° (WNW) 03:41:14 436.500 FM
AO-Echo 24 Apr 03:39:47 03:44:27 58° 287° (WNW) 03:49:02 ?
TMSAT-1 24 Apr 03:39:52 03:44:44 36° 97° (E) 03:49:34 436.925 FM
AO-7 24 Apr 03:42:47 03:45:56 12° 88° (E) 03:49:05 29.400 - 29.500 MHz
Uosat F 24 Apr 04:03:20 04:06:59 20° 94° (E) 04:10:37 435.120 FM
AO-27 24 Apr 04:14:38 04:18:48 25° 294° (WNW) 04:22:59 436.795 MHz FM
Oscar 19 24 Apr 04:18:56 04:21:20 13° 300° (WNW) 04:23:43 437.125 CW, 437.150 USB
OPAL 24 Apr 04:19:37 04:21:51 13° 268° (W) 04:24:05 ?
RS-15 24 Apr 04:23:32 04:30:19 18° 99° (E) 04:36:57 29.354 - 29.394 USB, Beacon 29.352 USB
KITSAT 1 24 Apr 04:24:02 04:30:24 25° 321° (NW) 04:36:48 435.175 FM
ITAMSAT 1 24 Apr 04:24:15 04:28:06 22° 296° (WNW) 04:31:56 435.822 SSB
Oscar 16 24 Apr 04:29:56 04:30:20 10° 302° (WNW) 04:30:45 437.025 USB, Beacon 2401.1428
Gurwin Techsat 1B 24 Apr 04:34:35 04:39:43 51° 289° (WNW) 04:44:49 435.225 FM
AO-40 24 Apr 04:58:23 10:27:06 38° 180° (S) 15:41:05 Beacon 2401.320
JAS-1B 24 Apr 05:10:24 05:16:05 77° 286° (WNW) 05:22:12 435.800 - 435.900 CW/SSB
TMSAT-1 24 Apr 05:20:03 05:24:29 28° 293° (WNW) 05:28:55 436.925 FM
STRAND 1 24 Apr 05:26:17 05:29:11 15° 61° (ENE) 05:32:05 ?
AO-7 24 Apr 05:31:40 05:40:00 73° 106° (ESE) 05:48:19 29.400 - 29.500 MHz
Uosat F 24 Apr 05:41:13 05:45:58 44° 290° (WNW) 05:50:41 435.120 FM
MaSat-1 24 Apr 05:52:09 05:55:08 41° 63° (ENE) 05:58:38 437.345 MHz
JAS-2 24 Apr 06:28:02 06:28:54 10° 90° (E) 06:29:48 435.800 - 435.900 CW/SSB, 435.910 FM
RS-15 24 Apr 06:29:35 06:40:56 82° 119° (ESE) 06:51:56 29.354 - 29.394 USB, Beacon 29.352 USB
Hamsat 24 Apr 06:43:55 06:48:02 39° 98° (E) 06:52:07 145.90 MHz
PCSat 24 Apr 06:55:42 06:56:24 10° 37° (NE) 06:57:06 145.825 MHz
STRAND 1 24 Apr 07:02:44 07:07:48 67° 258° (WSW) 07:12:54 ?
PANSAT 24 Apr 07:13:32 07:15:28 13° 172° (S) 07:17:24 not established
AO-7 24 Apr 07:25:33 07:32:02 26° 305° (NW) 07:38:32 29.400 - 29.500 MHz
MaSat-1 24 Apr 07:32:59 07:33:19 10° 252° (WSW) 07:33:40 437.345 MHz
Sapphire 24 Apr 07:51:55 07:56:16 24° 48° (NE) 08:00:36 437.095 MHz 1200 baud AX-25 AFSK
SO-67 24 Apr 07:52:11 07:55:31 40° 98° (E) 07:58:49 435.3500 MHz FM
JAS-2 24 Apr 08:08:56 08:14:31 86° 104° (ESE) 08:20:48 435.800 - 435.900 CW/SSB, 435.910 FM
Hamsat 24 Apr 08:20:42 08:23:43 19° 293° (WNW) 08:26:43 145.90 MHz
KITSAT 1 24 Apr 08:25:57 08:29:34 13° 23° (NNE) 08:33:09 435.175 FM
PCSat 24 Apr 08:35:45 08:41:05 54° 57° (ENE) 08:46:22 145.825 MHz
RS-15 24 Apr 08:44:48 08:54:33 33° 324° (NW) 09:04:10 29.354 - 29.394 USB, Beacon 29.352 USB
PANSAT 24 Apr 08:52:53 08:54:59 14° 186° (S) 08:57:04 not established
Saudisat 1A 24 Apr 09:17:20 09:21:09 28° 113° (ESE) 09:24:59 436.775 MHz
SO-67 24 Apr 09:27:06 09:28:17 11° 294° (WNW) 09:29:27 435.3500 MHz FM
Sapphire 24 Apr 09:34:44 09:40:00 53° 247° (WSW) 09:45:13 437.095 MHz 1200 baud AX-25 AFSK
JAS-2 24 Apr 09:56:29 09:59:03 13° 299° (WNW) 10:01:42 435.800 - 435.900 CW/SSB, 435.910 FM
HO-68 24 Apr 10:01:44 10:08:53 64° 103° (ESE) 10:15:59 435.675 MHz FM
Oscar 11 24 Apr 10:12:25 10:16:23 33° 97° (E) 10:20:20 145.825 FM, Beacon 2401.500 USB
FUNcube-1 24 Apr 10:19:43 10:21:36 13° 91° (E) 10:23:28 145.950 - 145.970 MHz USB
KITSAT 1 24 Apr 10:20:00 10:27:36 41° 49° (NE) 10:35:06 435.175 FM
PCSat 24 Apr 10:20:11 10:24:03 20° 254° (WSW) 10:27:55 145.825 MHz
Oscar 10/S400 24 Apr 10:21:19 11:59:53 55° 233° (SW) 18:29:45 145.825 - 145.975 CW/USB, Beacon 145.810 USB
Saudisat 1A 24 Apr 10:56:41 11:00:40 31° 310° (NW) 11:04:41 436.775 MHz
RS-15 24 Apr 11:04:49 11:11:46 18° 358° (N) 11:18:43 29.354 - 29.394 USB, Beacon 29.352 USB
Oscar 11 24 Apr 11:49:04 11:52:22 21° 293° (WNW) 11:55:40 145.825 FM, Beacon 2401.500 USB
HO-68 24 Apr 11:50:23 11:56:01 26° 301° (WNW) 12:01:38 435.675 MHz FM
FUNcube-1 24 Apr 11:54:05 11:58:18 55° 286° (WNW) 12:02:36 145.950 - 145.970 MHz USB
KITSAT 1 24 Apr 12:15:26 12:23:06 48° 249° (WSW) 12:30:42 435.175 FM
Oscar 19 24 Apr 12:17:44 12:20:12 14° 60° (ENE) 12:22:40 437.125 CW, 437.150 USB
ISS 24 Apr 12:21:59 12:23:33 13° 129° (SE) 12:25:08 145.800 FM
Oscar 16 24 Apr 12:25:59 12:29:19 18° 63° (ENE) 12:32:39 437.025 USB, Beacon 2401.1428
SO-50 24 Apr 13:06:29 13:07:46 11° 107° (ESE) 13:09:03 436.795 FM
Uribyol 2 24 Apr 13:10:18 13:14:21 24° 65° (ENE) 13:18:23 436.500 FM
AO-Echo 24 Apr 13:14:46 13:18:24 20° 65° (ENE) 13:21:59 ?
RS-15 24 Apr 13:19:53 13:29:13 31° 34° (NE) 13:38:38 29.354 - 29.394 USB, Beacon 29.352 USB
AO-27 24 Apr 13:52:09 13:57:13 56° 72° (ENE) 14:02:17 436.795 MHz FM
Oscar 19 24 Apr 13:53:43 13:58:51 77° 257° (WSW) 14:04:03 437.125 CW, 437.150 USB
ISS 24 Apr 13:56:34 13:59:52 67° 324° (NW) 14:03:12 145.800 FM
ITAMSAT 1 24 Apr 14:01:19 14:06:27 67° 73° (ENE) 14:11:35 435.822 SSB
Oscar 16 24 Apr 14:03:07 14:08:10 58° 259° (W) 14:13:17 437.025 USB, Beacon 2401.1428
JAS-1B 24 Apr 14:07:58 14:11:35 15° 59° (ENE) 14:14:57 435.800 - 435.900 CW/SSB
Gurwin Techsat 1B 24 Apr 14:16:02 14:20:33 30° 67° (ENE) 14:25:06 435.225 FM
AO-7 24 Apr 14:40:36 14:46:15 21° 52° (NE) 14:51:53 29.400 - 29.500 MHz
SO-50 24 Apr 14:43:13 14:47:41 73° 303° (WNW) 14:52:12 436.795 FM
Uribyol 2 24 Apr 14:48:43 14:53:34 41° 261° (W) 14:58:26 436.500 FM
OPAL 24 Apr 14:48:57 14:52:44 20° 95° (E) 14:56:30 ?
AO-Echo 24 Apr 14:51:46 14:56:49 51° 260° (W) 15:01:45 ?
TMSAT-1 24 Apr 14:59:56 15:05:03 53° 72° (ENE) 15:10:12 436.925 FM
Uosat F 24 Apr 15:15:58 15:20:08 27° 67° (ENE) 15:24:19 435.120 FM
RS-15 24 Apr 15:32:08 15:43:08 90° 60° (ENE) 15:54:27 29.354 - 29.394 USB, Beacon 29.352 USB
AO-27 24 Apr 15:33:46 15:37:04 17° 268° (W) 15:40:22 436.795 MHz FM
ISS 24 Apr 15:34:54 15:37:06 16° 343° (NNW) 15:39:18 145.800 FM
ITAMSAT 1 24 Apr 15:43:47 15:46:24 14° 269° (W) 15:49:01 435.822 SSB
JAS-1B 24 Apr 15:53:43 16:01:34 85° 75° (ENE) 16:08:06 435.800 - 435.900 CW/SSB
Gurwin Techsat 1B 24 Apr 15:55:37 16:00:24 34° 263° (W) 16:05:13 435.225 FM
OPAL 24 Apr 16:26:49 16:31:51 49° 291° (WNW) 16:36:51 ?
SO-50 24 Apr 16:27:36 16:29:05 11° 323° (NW) 16:30:34 436.795 FM
AO-7 24 Apr 16:29:39 16:37:57 89° 71° (ENE) 16:46:17 29.400 - 29.500 MHz
UOSAT-12 24 Apr 16:34:45 16:39:17 84° 121° (ESE) 16:43:57 437.025 FM, 437.400 FM
TMSAT-1 24 Apr 16:41:40 16:45:17 19° 268° (W) 16:48:55 436.925 FM
Uosat F 24 Apr 16:54:15 16:58:47 34° 263° (W) 17:03:20 435.120 FM
ISS 24 Apr 17:13:40 17:14:54 12° 4° (N) 17:16:09 145.800 FM
Hamsat 24 Apr 17:37:13 17:40:44 26° 69° (ENE) 17:44:17 145.90 MHz
Saudisat 1A 24 Apr 17:44:42 17:48:09 22° 46° (NE) 17:51:34 436.775 MHz
RS-15 24 Apr 17:46:31 17:53:59 22° 259° (W) 18:01:38 29.354 - 29.394 USB, Beacon 29.352 USB
JAS-1B 24 Apr 17:48:26 17:52:35 15° 268° (W) 17:56:26 435.800 - 435.900 CW/SSB
UOSAT-12 24 Apr 18:17:28 18:20:05 15° 320° (NW) 18:22:44 437.025 FM, 437.400 FM
JAS-2 24 Apr 18:21:50 18:26:40 31° 68° (ENE) 18:31:13 435.800 - 435.900 CW/SSB, 435.910 FM
AO-7 24 Apr 18:26:37 18:31:42 17° 269° (W) 18:36:49 29.400 - 29.500 MHz
SO-67 24 Apr 18:26:46 18:28:35 14° 67° (ENE) 18:30:24 435.3500 MHz FM
ISS 24 Apr 18:49:50 18:52:35 23° 24° (NNE) 18:55:19 145.800 FM
Hamsat 24 Apr 19:13:10 19:16:39 25° 265° (W) 19:20:11 145.90 MHz
STRAND 1 24 Apr 19:14:07 19:18:58 43° 99° (E) 19:23:48 ?
Saudisat 1A 24 Apr 19:23:46 19:27:57 43° 244° (WSW) 19:32:04 436.775 MHz
MaSat-1 24 Apr 19:55:17 19:57:26 20° 111° (ESE) 19:59:26 437.345 MHz
SO-67 24 Apr 19:58:16 20:01:26 32° 263° (W) 20:04:38 435.3500 MHz FM
JAS-2 24 Apr 20:06:49 20:11:45 31° 263° (W) 20:16:24 435.800 - 435.900 CW/SSB, 435.910 FM
ISS 24 Apr 20:26:12 20:29:30 56° 221° (SW) 20:32:47 145.800 FM
HO-68 24 Apr 20:29:32 20:36:13 45° 66° (ENE) 20:42:55 435.675 MHz FM
STRAND 1 24 Apr 20:53:59 20:57:52 22° 295° (WNW) 21:01:45 ?
Oscar 11 24 Apr 21:07:19 21:10:50 25° 68° (ENE) 21:14:21 145.825 FM, Beacon 2401.500 USB
MaSat-1 24 Apr 21:34:55 21:35:44 11° 303° (WNW) 21:36:32 437.345 MHz
SO-50 24 Apr 21:36:35 21:38:47 13° 39° (NE) 21:40:59 436.795 FM
HO-68 24 Apr 22:17:39 22:23:59 34° 263° (W) 22:30:23 435.675 MHz FM
Sapphire 24 Apr 22:33:56 22:37:58 22° 106° (ESE) 22:42:02 437.095 MHz 1200 baud AX-25 AFSK
Oscar 11 24 Apr 22:43:14 22:46:55 27° 264° (W) 22:50:38 145.825 FM, Beacon 2401.500 USB
FUNcube-1 24 Apr 22:50:02 22:54:13 74° 258° (WSW) 22:58:22 145.950 - 145.970 MHz USB
SO-50 24 Apr 23:15:24 23:20:04 82° 58° (ENE) 23:24:48 436.795 FM
PCSat 24 Apr 23:16:44 23:22:00 57° 114° (ESE) 23:27:18 145.825 MHz
UOSAT-12 24 Apr 23:27:30 23:28:33 11° 35° (NE) 23:29:36 437.025 FM, 437.400 FM
Sapphire 25 Apr 00:15:46 00:21:01 50° 303° (WNW) 00:26:18 437.095 MHz 1200 baud AX-25 AFSK
KITSAT 1 25 Apr 00:48:42 00:55:16 28° 105° (ESE) 01:01:49 435.175 FM
SO-50 25 Apr 00:59:00 00:59:59 11° 253° (WSW) 01:00:58 436.795 FM
PCSat 25 Apr 01:01:34 01:05:47 23° 312° (NW) 01:10:01 145.825 MHz
UOSAT-12 25 Apr 01:05:01 01:09:42 60° 55° (NE) 01:14:20 437.025 FM, 437.400 FM
OPAL 25 Apr 02:02:59 02:07:28 33° 66° (ENE) 02:12:02 ?
Oscar 19 25 Apr 02:06:12 02:11:06 40° 98° (E) 02:15:56 437.125 CW, 437.150 USB
AO-27 25 Apr 02:06:41 02:10:33 21° 94° (E) 02:14:24 436.795 MHz FM
